User: anonymous   Login
Location: Newark
(55.7083°N, 13.1992°E)
Time: 05:25:25
(UTC+00:00)
Language:

SR - Orbit

View from above orbital plane
View from above orbital plane
View from above satellite
View from above satellite

Ground track
Ground track

The orbit data is extracted from the following two-line orbital elements,

1    46U 60007B   20057.18584337 -.00000041 +00000-0 +15166-4 0  9995
2    46 066.6923 349.8551 0214470 216.5628 142.0681 14.49275247122841
Epoch (UTC): 26 February 2020 04:27:36
Eccentricity: 0.0214470
inclination: 66.6923°
perigee height: 575 km
apogee height: 880 km
right ascension of ascending node: 349.8551°
argument of perigee: 216.5628°
revolutions per day: 14.49275247
mean anomaly at epoch: 142.0681°
orbit number at epoch: 12284

The dashed part of the orbit path shows where the satellite is in the earth's shadow,  

DLR